W4MSI Weather Reports


Display with metric or nautical units.
time (UTC)temp
F
wind
direction
speed
MPH
gust
MPH
rain 1hr
in
rain 24hr
in
rain mn
in
humidity
%
barometer
mb
20260905234432 92 223 0.0 0.0 0.00 0.00 0.00 53 1010.9
20260905233926 92 223 0.0 0.0 0.00 0.00 0.00 54 1010.9
20260905233422 93 223 0.0 0.0 0.00 0.00 0.00 52 1010.7
20260905232921 94 223 0.0 0.0 0.00 0.00 0.00 51 1010.6
20260905232417 95 223 0.0 0.0 0.00 0.00 0.00 50 1010.7
20260905231912 96 222 0.0 0.0 0.00 0.00 0.00 47 1010.8
20260905231408 96 217 0.0 0.0 0.00 0.00 0.00 47 1010.8
20260905230904 96 219 0.0 0.0 0.00 0.00 0.00 47 1010.7
20260905230402 97 233 0.0 0.0 0.00 0.00 0.00 46 1010.8
20260905225901 97 188 0.0 0.0 0.00 0.00 0.00 46 1010.7
20260905225356 97 192 0.0 0.0 0.00 0.00 0.00 48 1010.7
20260905224851 98 321 0.0 0.0 0.00 0.00 0.00 46 1010.7
20260905224348 98 219 1.0 1.0 0.00 0.00 0.00 44 1010.4
20260905223842 98 252 0.0 0.0 0.00 0.00 0.00 43 1010.5
20260905223340 99 279 2.0 2.0 0.00 0.00 0.00 41 1010.7
20260905222840 99 310 2.0 2.0 0.00 0.00 0.00 40 1010.6
20260905222338 99 234 2.0 2.0 0.00 0.00 0.00 41 1010.5
20260905221835 99 216 0.0 0.0 0.00 0.00 0.00 44 1010.5
20260905221331 100 65 0.0 0.0 0.00 0.00 0.00 42 1010.7
20260905220827 100 265 2.0 3.0 0.00 0.00 0.00 41 1010.5
20260905220323 100 202 1.0 2.0 0.00 0.00 0.00 41 1010.6
20260905215822 100 197 0.0 0.0 0.00 0.00 0.00 43 1010.6
20260905215318 100 160 0.0 0.0 0.00 0.00 0.00 41 1010.6
20260905214814 100 223 0.0 0.0 0.00 0.00 0.00 41 1010.5
20260905214309 100 200 2.0 2.0 0.00 0.00 0.00 39 1010.8
20260905213805 98 328 2.0 3.0 0.00 0.00 0.00 40 1010.6
20260905213301 98 25 3.0 3.0 0.00 0.00 0.00 41 1010.8
20260905212801 100 5 1.0 2.0 0.00 0.00 0.00 42 1010.8
20260905212255 100 168 0.0 1.0 0.00 0.00 0.00 44 1010.7
20260905211755 100 83 2.0 2.0 0.00 0.00 0.00 41 1010.6
20260905211250 100 163 0.0 0.0 0.00 0.00 0.00 41 1010.7
20260905210747 101 229 2.0 2.0 0.00 0.00 0.00 39 1010.7
20260905210246 101 261 5.0 6.0 0.00 0.00 0.00 38 1011.0
20260905205745 101 233 3.0 4.0 0.00 0.00 0.00 39 1010.9
20260905205240 101 316 1.0 1.0 0.00 0.00 0.00 41 1011.0
20260905204739 101 248 2.0 3.0 0.00 0.00 0.00 40 1011.0
20260905204235 101 200 2.0 3.0 0.00 0.00 0.00 40 1011.0
20260905203735 100 176 0.0 0.0 0.00 0.00 0.00 41 1011.2
20260905203230 100 246 1.0 2.0 0.00 0.00 0.00 38 1011.3
20260905202726 100 259 1.0 1.0 0.00 0.00 0.00 42 1011.5
20260905202222 99 204 1.0 2.0 0.00 0.00 0.00 41 1011.4
20260905201717 99 288 1.0 2.0 0.00 0.00 0.00 41 1011.5
20260905201216 99 225 4.0 4.0 0.00 0.00 0.00 42 1011.6
20260905200712 98 232 1.0 2.0 0.00 0.00 0.00 42 1011.7
20260905200207 99 195 2.0 2.0 0.00 0.00 0.00 42 1011.6
20260905195705 100 277 1.0 1.0 0.00 0.00 0.00 43 1011.8
20260905195200 98 252 2.0 2.0 0.00 0.00 0.00 44 1011.8
20260905194656 97 221 0.0 0.0 0.00 0.00 0.00 45 1012.0
20260905194156 97 238 0.0 1.0 0.00 0.00 0.00 44 1012.0
20260905193655 98 261 0.0 0.0 0.00 0.00 0.00 45 1012.0
20260905193151 99 184 3.0 3.0 0.00 0.00 0.00 42 1011.7
20260905192646 99 190 5.0 6.0 0.00 0.00 0.00 43 1011.9
20260905192143 99 207 6.0 8.0 0.00 0.00 0.00 41 1012.2
20260905191642 99 214 1.0 2.0 0.00 0.00 0.00 41 1012.2
20260905191140 100 260 4.0 4.0 0.00 0.00 0.00 40 1012.4
20260905190638 99 178 1.0 1.0 0.00 0.00 0.00 42 1012.5
20260905190133 98 57 0.0 1.0 0.00 0.00 0.00 43 1012.4
20260905185631 99 252 3.0 3.0 0.00 0.00 0.00 40 1012.7
20260905185126 99 107 1.0 2.0 0.00 0.00 0.00 44 1012.4
20260905184626 99 1 2.0 3.0 0.00 0.00 0.00 43 1012.7
20260905184125 99 279 2.0 4.0 0.00 0.00 0.00 41 1012.5
20260905183624 97 185 2.0 2.0 0.00 0.00 0.00 42 1012.7
20260905183120 97 200 3.0 3.0 0.00 0.00 0.00 42 1012.8
20260905182619 98 216 5.0 7.0 0.00 0.00 0.00 42 1012.9
20260905182120 98 280 3.0 3.0 0.00 0.00 0.00 43 1012.8
20260905181620 98 204 2.0 2.0 0.00 0.00 0.00 42 1012.8
20260905181119 98 205 4.0 6.0 0.00 0.00 0.00 42 1012.9
20260905180614 98 202 1.0 1.0 0.00 0.00 0.00 41 1012.9
20260905180109 98 265 4.0 4.0 0.00 0.00 0.00 39 1013.0
20260905175608 96 216 4.0 4.0 0.00 0.00 0.00 44 1013.3
20260905175104 95 93 2.0 2.0 0.00 0.00 0.00 49 1013.4
20260905174600 96 29 3.0 4.0 0.00 0.00 0.00 47 1013.5
20260905174054 97 99 2.0 4.0 0.00 0.00 0.00 46 1013.4
20260905173551 98 142 1.0 1.0 0.00 0.00 0.00 45 1013.5
20260905173046 97 228 3.0 3.0 0.00 0.00 0.00 46 1013.6
20260905172545 97 93 3.0 4.0 0.00 0.00 0.00 45 1013.7
20260905172040 98 156 2.0 2.0 0.00 0.00 0.00 45 1013.7
20260905171537 98 267 3.0 3.0 0.00 0.00 0.00 44 1013.9
20260905171032 97 179 1.0 1.0 0.00 0.00 0.00 47 1013.9
20260905170529 96 191 2.0 2.0 0.00 0.00 0.00 47 1013.8
20260905170024 97 63 2.0 2.0 0.00 0.00 0.00 47 1013.9
20260905165519 97 299 0.0 1.0 0.00 0.00 0.00 47 1013.9
20260905165014 96 163 1.0 1.0 0.00 0.00 0.00 48 1013.7
20260905164514 96 48 2.0 2.0 0.00 0.00 0.00 51 1014.0
20260905164008 96 329 2.0 2.0 0.00 0.00 0.00 51 1014.0
20260905163505 96 235 2.0 2.0 0.00 0.00 0.00 51 1014.2
20260905163000 96 166 0.0 1.0 0.00 0.00 0.00 49 1014.1
20260905162455 96 202 2.0 3.0 0.00 0.00 0.00 49 1014.0
20260905161950 95 211 2.0 3.0 0.00 0.00 0.00 52 1014.2
20260905161450 95 27 3.0 4.0 0.00 0.00 0.00 50 1014.1
20260905160948 96 21 2.0 2.0 0.00 0.00 0.00 51 1014.3
20260905160442 95 285 4.0 4.0 0.00 0.00 0.00 50 1014.4
20260905155941 96 221 2.0 3.0 0.00 0.00 0.00 50 1014.3
20260905155436 95 242 1.0 1.0 0.00 0.00 0.00 53 1014.1
20260905154935 94 122 1.0 1.0 0.00 0.00 0.00 54 1014.4
20260905154430 95 145 0.0 1.0 0.00 0.00 0.00 53 1014.4
20260905153926 95 171 0.0 0.0 0.00 0.00 0.00 53 1014.4
20260905153422 95 120 2.0 3.0 0.00 0.00 0.00 53 1014.4
20260905152922 95 257 1.0 1.0 0.00 0.00 0.00 52 1014.5
20260905152421 95 287 1.0 1.0 0.00 0.00 0.00 55 1014.5
20260905151916 94 14 2.0 2.0 0.00 0.00 0.00 54 1014.6
20260905151412 94 348 4.0 4.0 0.00 0.00 0.00 53 1014.6
20260905150907 94 153 0.0 0.0 0.00 0.00 0.00 54 1014.6
20260905150406 94 144 1.0 2.0 0.00 0.00 0.00 55 1014.7
20260905145904 93 181 0.0 0.0 0.00 0.00 0.00 57 1014.7
20260905145404 93 48 0.0 1.0 0.00 0.00 0.00 56 1014.5
20260905144903 93 116 1.0 1.0 0.00 0.00 0.00 58 1014.7
20260905144359 93 101 1.0 1.0 0.00 0.00 0.00 60 1014.6
20260905143857 93 21 1.0 1.0 0.00 0.00 0.00 59 1014.8
20260905143352 92 175 0.0 1.0 0.00 0.00 0.00 59 1014.5
20260905142851 92 187 1.0 1.0 0.00 0.00 0.00 60 1014.6
20260905142350 92 24 1.0 2.0 0.00 0.00 0.00 60 1014.6
20260905141846 91 123 0.0 1.0 0.00 0.00 0.00 61 1014.7
20260905141341 91 264 2.0 2.0 0.00 0.00 0.00 61 1014.7
20260905140837 90 209 0.0 0.0 0.00 0.00 0.00 62 1014.9
20260905140337 90 285 1.0 1.0 0.00 0.00 0.00 62 1014.8
20260905135836 90 184 1.0 2.0 0.00 0.00 0.00 63 1014.8
20260905135332 90 49 0.0 0.0 0.00 0.00 0.00 65 1014.8
20260905134828 90 20 0.0 0.0 0.00 0.00 0.00 64 1014.7
20260905134326 89 165 0.0 1.0 0.00 0.00 0.00 68 1014.7
20260905133827 89 30 2.0 3.0 0.00 0.00 0.00 66 1014.9
20260905133322 89 145 0.0 0.0 0.00 0.00 0.00 68 1014.8
20260905132821 90 347 1.0 2.0 0.00 0.00 0.00 64 1014.7
20260905132317 89 359 0.0 0.0 0.00 0.00 0.00 67 1014.9
20260905131816 89 359 0.0 0.0 0.00 0.00 0.00 68 1014.8
20260905131312 89 250 0.0 0.0 0.00 0.00 0.00 67 1014.8
20260905130807 88 287 0.0 0.0 0.00 0.00 0.00 69 1014.9
20260905130306 88 288 0.0 0.0 0.00 0.00 0.00 69 1014.6
20260905125801 86 289 0.0 0.0 0.00 0.00 0.00 73 1014.5
20260905125256 85 289 0.0 0.0 0.00 0.00 0.00 75 1014.9
20260905124753 85 289 0.0 0.0 0.00 0.00 0.00 75 1014.7
20260905124248 84 289 0.0 0.0 0.00 0.00 0.00 76 1014.8
20260905123743 83 289 0.0 0.0 0.00 0.00 0.00 78 1014.8
20260905123240 82 289 0.0 0.0 0.00 0.00 0.00 79 1014.7
20260905122735 81 289 0.0 0.0 0.00 0.00 0.00 80 1014.7
20260905122234 80 289 0.0 0.0 0.00 0.00 0.00 81 1014.7
20260905121730 80 289 0.0 0.0 0.00 0.00 0.00 82 1014.8
20260905121226 79 289 0.0 0.0 0.00 0.00 0.00 83 1014.6
20260905120724 79 290 0.0 0.0 0.00 0.00 0.00 83 1014.5
20260905120219 78 290 0.0 0.0 0.00 0.00 0.00 83 1014.5
20260905115720 78 290 0.0 0.0 0.00 0.00 0.00 83 1014.4
20260905115219 78 291 0.0 0.0 0.00 0.00 0.00 84 1014.4
20260905114714 78 292 0.0 0.0 0.00 0.00 0.00 84 1014.4
20260905114213 77 305 0.0 0.0 0.00 0.00 0.00 85 1014.3
20260905113712 77 305 0.0 0.0 0.00 0.00 0.00 85 1014.3
20260905113208 77 305 0.0 0.0 0.00 0.00 0.00 85 1014.1
20260905112708 77 305 0.0 0.0 0.00 0.00 0.00 84 1014.3
20260905112204 77 305 0.0 0.0 0.00 0.00 0.00 84 1014.2
20260905111703 77 307 0.0 0.0 0.00 0.00 0.00 85 1014.2
20260905111203 77 284 0.0 0.0 0.00 0.00 0.00 86 1014.1
20260905110702 77 262 0.0 0.0 0.00 0.00 0.00 86 1014.1
20260905110157 77 262 0.0 0.0 0.00 0.00 0.00 86 1013.9
20260905105653 77 262 0.0 0.0 0.00 0.00 0.00 85 1013.9
20260905105151 77 262 0.0 0.0 0.00 0.00 0.00 85 1013.9
20260905104646 77 262 0.0 0.0 0.00 0.00 0.00 85 1013.8
20260905104142 77 262 0.0 0.0 0.00 0.00 0.00 85 1013.9
20260905103637 77 320 0.0 0.0 0.00 0.00 0.00 86 1013.8
20260905103133 77 320 0.0 0.0 0.00 0.00 0.00 86 1013.7
20260905102628 77 320 0.0 0.0 0.00 0.00 0.00 86 1013.7
20260905102125 77 320 0.0 0.0 0.00 0.00 0.00 87 1013.7
20260905101623 76 320 0.0 0.0 0.00 0.00 0.00 89 1013.8
20260905101122 75 320 0.0 0.0 0.00 0.00 0.00 90 1013.7
20260905100619 75 320 0.0 0.0 0.00 0.00 0.00 90 1013.4
20260905100114 75 320 0.0 0.0 0.00 0.00 0.00 91 1013.7
20260905095613 75 320 0.0 0.0 0.00 0.00 0.00 91 1013.5
20260905095109 75 320 0.0 0.0 0.00 0.00 0.00 91 1013.5
20260905094609 75 320 0.0 0.0 0.00 0.00 0.00 90 1013.6
20260905094109 75 320 0.0 0.0 0.00 0.00 0.00 90 1013.5
20260905093608 75 320 0.0 0.0 0.00 0.00 0.00 90 1013.5
20260905093105 75 320 0.0 0.0 0.00 0.00 0.00 90 1013.4
20260905092604 75 320 0.0 0.0 0.00 0.00 0.00 89 1013.4
20260905092101 76 285 1.0 1.0 0.00 0.00 0.00 88 1013.5
20260905091600 77 262 0.0 0.0 0.00 0.00 0.00 87 1013.4
20260905091054 77 262 0.0 0.0 0.00 0.00 0.00 87 1013.4
20260905090554 76 262 0.0 0.0 0.00 0.00 0.00 87 1013.2
20260905090050 76 262 0.0 0.0 0.00 0.00 0.00 90 1013.2
20260905085548 76 262 0.0 0.0 0.00 0.00 0.00 90 1013.0
20260905085044 76 262 0.0 0.0 0.00 0.00 0.00 89 1013.2
20260905084543 77 262 0.0 0.0 0.00 0.00 0.00 89 1013.0
20260905084039 76 262 0.0 0.0 0.00 0.00 0.00 87 1013.2
20260905083533 76 262 0.0 0.0 0.00 0.00 0.00 89 1013.2
20260905083030 76 262 0.0 0.0 0.00 0.00 0.00 89 1013.3
20260905082525 76 262 0.0 0.0 0.00 0.00 0.00 88 1013.0
20260905082021 76 262 0.0 0.0 0.00 0.00 0.00 88 1013.3
20260905081520 76 262 0.0 0.0 0.00 0.00 0.00 88 1013.3
20260905081015 76 263 0.0 0.0 0.00 0.00 0.00 87 1013.3
20260905080515 76 263 0.0 0.0 0.00 0.00 0.00 88 1013.3
20260905080010 76 263 0.0 0.0 0.00 0.00 0.00 88 1013.3
20260905075503 76 263 0.0 0.0 0.00 0.00 0.00 89 1013.4
20260905075003 77 263 0.0 0.0 0.00 0.00 0.00 88 1013.5
20260905074458 77 211 0.0 0.0 0.00 0.00 0.00 87 1013.2
20260905073953 77 209 0.0 0.0 0.00 0.00 0.00 87 1013.4
20260905073448 77 209 0.0 0.0 0.00 0.00 0.00 87 1013.3
20260905072944 77 209 0.0 0.0 0.00 0.00 0.00 87 1013.4
20260905072438 77 209 0.0 0.0 0.00 0.00 0.00 87 1013.3
20260905071934 77 209 0.0 0.0 0.00 0.00 0.00 86 1013.5
20260905071431 77 247 0.0 0.0 0.00 0.00 0.00 86 1013.6
20260905070930 77 247 0.0 0.0 0.00 0.00 0.00 86 1013.5
20260905070427 77 221 0.0 0.0 0.00 0.00 0.00 86 1013.7
20260905065926 77 190 0.0 0.0 0.00 0.00 0.00 87 1013.6
20260905065424 77 190 0.0 0.0 0.00 0.00 0.00 87 1013.6
20260905064919 77 191 0.0 0.0 0.00 0.00 0.00 85 1013.7
20260905064415 77 191 0.0 0.0 0.00 0.00 0.00 87 1013.8
20260905063914 77 191 0.0 0.0 0.00 0.00 0.00 87 1013.9
20260905063410 77 191 0.0 0.0 0.00 0.00 0.00 87 1013.8
20260905062907 78 191 0.0 0.0 0.00 0.00 0.00 86 1013.9
20260905062406 78 191 0.0 0.0 0.00 0.00 0.00 85 1014.1
20260905061901 78 191 0.0 0.0 0.00 0.00 0.00 86 1014.2
20260905061400 78 191 0.0 0.0 0.00 0.00 0.00 85 1014.0
20260905060855 78 191 0.0 0.0 0.00 0.00 0.00 85 1014.0
20260905060352 78 191 0.0 0.0 0.00 0.00 0.00 86 1014.0
20260905055850 77 191 0.0 0.0 0.00 0.00 0.00 88 1014.0
20260905055346 77 157 0.0 0.0 0.00 0.00 0.00 88 1014.0
20260905054845 77 157 0.0 0.0 0.00 0.00 0.00 89 1014.2
20260905054342 77 159 1.0 2.0 0.00 0.00 0.00 89 1014.2
20260905053841 77 252 0.0 0.0 0.00 0.00 0.00 87 1014.0
20260905053342 77 252 0.0 0.0 0.00 0.00 0.00 87 1014.1
20260905052837 78 252 0.0 0.0 0.00 0.00 0.00 87 1013.9
20260905052337 78 253 0.0 0.0 0.00 0.00 0.00 86 1014.1
20260905051836 78 253 0.0 1.0 0.00 0.00 0.00 86 1014.2
20260905051332 79 253 0.0 1.0 0.00 0.00 0.00 85 1014.0
20260905050829 79 223 0.0 0.0 0.00 0.00 0.00 84 1013.9
20260905050325 79 223 0.0 0.0 0.00 0.00 0.00 84 1014.0
20260905045820 79 223 0.0 0.0 0.00 0.00 0.00 84 1013.9
20260905045315 79 223 0.0 0.0 0.00 0.00 0.00 83 1013.9
20260905044810 80 223 0.0 0.0 0.00 0.00 0.00 82 1014.0
20260905044305 80 223 0.0 0.0 0.00 0.00 0.00 82 1014.0
20260905043804 79 223 0.0 0.0 0.00 0.00 0.00 82 1014.2
20260905043259 79 223 0.0 0.0 0.00 0.00 0.00 83 1014.1
20260905042759 79 223 0.0 0.0 0.00 0.00 0.00 83 1014.2
20260905042259 80 223 0.0 0.0 0.00 0.00 0.00 82 1014.3
20260905041754 80 223 0.0 0.0 0.00 0.00 0.00 82 1014.3
20260905041249 80 223 0.0 0.0 0.00 0.00 0.00 81 1014.3
20260905040744 80 222 0.0 0.0 0.00 0.00 0.00 81 1014.1
20260905040243 81 222 0.0 0.0 0.00 0.00 0.00 81 1014.0
20260905035738 81 223 0.0 0.0 0.00 0.00 0.00 79 1014.3
20260905035234 81 223 0.0 0.0 0.00 0.00 0.00 79 1014.2
20260905034731 81 223 0.0 0.0 0.00 0.00 0.00 79 1014.4
20260905034230 82 223 0.0 0.0 0.00 0.00 0.00 77 1014.2
20260905033729 83 223 0.0 0.0 0.00 0.00 0.00 75 1014.2
20260905033225 82 224 0.0 0.0 0.00 0.00 0.00 74 1014.2
20260905032724 82 209 0.0 1.0 0.00 0.00 0.00 77 1014.3
20260905032220 81 214 1.0 1.0 0.00 0.00 0.00 77 1014.2
20260905031715 81 219 1.0 1.0 0.00 0.00 0.00 79 1014.4
20260905031210 81 214 0.0 0.0 0.00 0.00 0.00 80 1014.5
20260905030705 81 214 0.0 0.0 0.00 0.00 0.00 80 1014.4
20260905030201 81 213 1.0 1.0 0.00 0.00 0.00 79 1014.5
20260905025655 81 203 0.0 0.0 0.00 0.00 0.00 82 1014.5
20260905025151 81 204 0.0 0.0 0.00 0.00 0.00 77 1014.4
20260905024647 82 203 0.0 0.0 0.00 0.00 0.00 77 1014.5
20260905024142 82 203 0.0 0.0 0.00 0.00 0.00 77 1014.4
20260905023637 82 203 0.0 0.0 0.00 0.00 0.00 75 1014.5
20260905023137 83 204 0.0 0.0 0.00 0.00 0.00 76 1014.4
20260905022636 83 204 0.0 0.0 0.00 0.00 0.00 74 1014.4
20260905022132 82 203 0.0 0.0 0.00 0.00 0.00 74 1014.5
20260905021631 81 165 0.0 0.0 0.00 0.00 0.00 77 1014.3
20260905021127 81 165 0.0 0.0 0.00 0.00 0.00 77 1014.5
20260905020627 81 181 1.0 1.0 0.00 0.00 0.00 78 1014.4
20260905020122 81 208 0.0 0.0 0.00 0.00 0.00 80 1014.4
20260905015621 82 208 0.0 0.0 0.00 0.00 0.00 80 1014.4
20260905015116 82 208 0.0 0.0 0.00 0.00 0.00 77 1014.4
20260905014615 82 208 0.0 0.0 0.00 0.00 0.00 79 1014.3
20260905014111 82 209 0.0 0.0 0.00 0.00 0.00 77 1014.1
20260905013607 82 209 0.0 0.0 0.00 0.00 0.00 75 1014.0
20260905013103 82 209 0.0 0.0 0.00 0.00 0.00 78 1014.1
20260905012602 82 209 0.0 0.0 0.00 0.00 0.00 75 1014.1
20260905012059 83 209 0.0 0.0 0.00 0.00 0.00 75 1013.9
20260905011555 84 209 0.0 0.0 0.00 0.00 0.00 71 1013.9
20260905011051 84 209 0.0 0.0 0.00 0.00 0.00 70 1013.9
20260905010550 84 209 0.0 0.0 0.00 0.00 0.00 69 1014.0
20260905010047 84 232 4.0 4.0 0.00 0.00 0.00 71 1013.8
20260905005542 84 203 0.0 0.0 0.00 0.00 0.00 73 1013.7
20260905005037 84 203 0.0 0.0 0.00 0.00 0.00 75 1013.7
20260905004532 85 203 0.0 0.0 0.00 0.00 0.00 76 1013.8
20260905004027 85 203 0.0 0.0 0.00 0.00 0.00 76 1013.6
20260905003523 85 203 0.0 0.0 0.00 0.00 0.00 72 1013.8
20260905003019 86 203 0.0 0.0 0.00 0.00 0.00 75 1013.5
20260905002514 86 203 0.0 0.0 0.00 0.00 0.00 71 1013.8
20260905002008 86 203 0.0 0.0 0.00 0.00 0.00 74 1013.7
20260905001503 87 203 0.0 0.0 0.00 0.00 0.00 73 1013.6
20260905000957 87 203 0.0 0.0 0.00 0.00 0.00 70 1013.5
20260905000454 88 203 0.0 0.0 0.00 0.00 0.00 68 1013.6
20260904235948 88 203 0.0 0.0 0.00 0.00 0.00 67 1013.7
20260904235444 89 203 0.0 0.0 0.00 0.00 0.00 66 1013.6
20260904234943 90 203 0.0 0.0 0.00 0.00 0.00 68 1013.7